| time (UTC) | temp F | wind direction | speed MPH | gust MPH | rain 1hr in | rain 24hr in | rain mn in | humidity % | barometer mb |
| 20260904103103 | 75 | 240 | 22.0 | 0.0 | 0.00 | 0.00 | 0.00 | 60 | 1015.0 |
| 20260904102312 | 75 | 250 | 22.0 | 0.0 | 0.00 | 0.00 | 0.00 | 57 | |
| 20260904100103 | 75 | 250 | 22.0 | 0.0 | 0.00 | 0.00 | 0.00 | 60 | 1015.0 |
| 20260904093103 | 75 | 220 | 16.0 | 0.0 | 0.00 | 0.00 | 0.00 | 60 | 1016.0 |
| 20260904091912 | 73 | 230 | 18.0 | 0.0 | 0.00 | 0.00 | 0.00 | 60 | |
| 20260904090103 | 73 | 230 | 16.0 | 0.0 | 0.00 | 0.00 | 0.00 | 64 | 1016.0 |
| 20260904083103 | 72 | 230 | 15.0 | 0.0 | 0.00 | 0.00 | 0.00 | 68 | 1016.0 |
| 20260904081911 | 70 | 230 | 12.0 | 0.0 | 0.00 | 0.00 | 0.00 | 68 | |
| 20260904073102 | 68 | 210 | 12.0 | 0.0 | 0.00 | 0.00 | 0.00 | 72 | 1017.0 |
| 20260904072112 | 68 | 220 | 14.0 | 0.0 | 0.00 | 0.00 | 0.00 | 68 | |
| 20260904063102 | 66 | 210 | 13.0 | 0.0 | 0.00 | 0.00 | 0.00 | 72 | 1017.0 |
| 20260904061856 | 64 | 220 | 12.0 | 0.0 | 0.00 | 0.00 | 0.00 | 77 | |
| 20260904060104 | 64 | 220 | 10.0 | 0.0 | 0.00 | 0.00 | 0.00 | 82 | 1017.0 |
| 20260904054302 | 64 | 220 | 13.0 | 0.0 | 0.00 | 0.00 | 0.00 | 77 | 1017.0 |
| 20260904053103 | 64 | 210 | 12.0 | 0.0 | 0.00 | 0.00 | 0.00 | 77 | 1017.0 |
| 20260904051856 | 64 | 210 | 9.0 | 0.0 | 0.00 | 0.00 | 0.00 | 72 | |
| 20260904043102 | 63 | 210 | 9.0 | 0.0 | 0.00 | 0.00 | 0.00 | 82 | 1017.0 |
| 20260904042257 | 63 | 200 | 9.0 | 0.0 | 0.00 | 0.00 | 0.00 | 77 | |
| 20260904040103 | 63 | 200 | 9.0 | 0.0 | 0.00 | 0.00 | 0.00 | 82 | 1017.0 |
| 20260904033102 | 63 | 200 | 9.0 | 0.0 | 0.00 | 0.00 | 0.00 | 82 | 1017.0 |
| 20260904030103 | 64 | 210 | 9.0 | 0.0 | 0.00 | 0.00 | 0.00 | 77 | 1018.0 |
| 20260904023103 | 63 | 210 | 8.0 | 0.0 | 0.00 | 0.00 | 0.00 | 82 | 1018.0 |
| 20260904021856 | 64 | 210 | 9.0 | 0.0 | 0.00 | 0.00 | 0.00 | 77 | |
| 20260904013103 | 64 | 230 | 9.0 | 0.0 | 0.00 | 0.00 | 0.00 | 77 | 1018.0 |
| 20260904012156 | 64 | 230 | 9.0 | 0.0 | 0.00 | 0.00 | 0.00 | 72 | |
| 20260904010104 | 64 | 230 | 8.0 | 0.0 | 0.00 | 0.00 | 0.00 | 77 | 1018.0 |
| 20260904003103 | 64 | 210 | 8.0 | 0.0 | 0.00 | 0.00 | 0.00 | 77 | 1018.0 |
| 20260904001856 | 64 | 210 | 12.0 | 0.0 | 0.00 | 0.00 | 0.00 | 77 | |
| 20260904000103 | 64 | 210 | 12.0 | 0.0 | 0.00 | 0.00 | 0.00 | 77 | 1018.0 |
| 20260903233103 | 64 | 210 | 10.0 | 0.0 | 0.00 | 0.00 | 0.00 | 77 | 1019.0 |
| 20260903231856 | 64 | 210 | 12.0 | 0.0 | 0.00 | 0.00 | 0.00 | 77 | |
| 20260903223102 | 64 | 210 | 10.0 | 0.0 | 0.00 | 0.00 | 0.00 | 77 | 1018.0 |
| 20260903222257 | 66 | 220 | 12.0 | 0.0 | 0.00 | 0.00 | 0.00 | 68 | |
| 20260903213102 | 64 | 230 | 10.0 | 0.0 | 0.00 | 0.00 | 0.00 | 77 | 1019.0 |
| 20260903211857 | 66 | 230 | 12.0 | 0.0 | 0.00 | 0.00 | 0.00 | 68 | |
| 20260903203103 | 64 | 220 | 10.0 | 0.0 | 0.00 | 0.00 | 0.00 | 77 | 1019.0 |
| 20260903201857 | 64 | 210 | 12.0 | 0.0 | 0.00 | 0.00 | 0.00 | 72 | |
| 20260903193103 | 64 | 230 | 10.0 | 0.0 | 0.00 | 0.00 | 0.00 | 72 | 1019.0 |
| 20260903192056 | 66 | 240 | 12.0 | 0.0 | 0.00 | 0.00 | 0.00 | 63 | |
| 20260903190103 | 66 | 240 | 10.0 | 0.0 | 0.00 | 0.00 | 0.00 | 68 | 1019.0 |
| 20260903183104 | 66 | 250 | 15.0 | 0.0 | 0.00 | 0.00 | 0.00 | 68 | 1019.0 |
| 20260903181856 | 68 | 260 | 16.0 | 0.0 | 0.00 | 0.00 | 0.00 | 60 | |
| 20260903173103 | 70 | 260 | 16.0 | 0.0 | 0.00 | 0.00 | 0.00 | 56 | 1019.0 |
| 20260903171910 | 70 | 260 | 16.0 | 0.0 | 0.00 | 0.00 | 0.00 | 56 | |
| 20260903170103 | 70 | 250 | 17.0 | 0.0 | 0.00 | 0.00 | 0.00 | 56 | 1019.0 |
| 20260903163103 | 72 | 250 | 16.0 | 0.0 | 0.00 | 0.00 | 0.00 | 49 | 1018.0 |
| 20260903162211 | 73 | 240 | 14.0 | 0.0 | 0.00 | 0.00 | 0.00 | 46 | |
| 20260903153102 | 73 | 240 | 10.0 | 0.0 | 0.00 | 0.00 | 0.00 | 49 | 1018.0 |
| 20260903151856 | 73 | 250 | 12.0 | 0.0 | 0.00 | 0.00 | 0.00 | 43 | |
| 20260903143103 | 73 | 260 | 9.0 | 0.0 | 0.00 | 0.00 | 0.00 | 46 | 1018.0 |
| 20260903141856 | 73 | 250 | 9.0 | 0.0 | 0.00 | 0.00 | 0.00 | 43 | |
| 20260903133102 | 72 | 250 | 12.0 | 0.0 | 0.00 | 0.00 | 0.00 | 49 | 1019.0 |
| 20260903132058 | 73 | 240 | 14.0 | 0.0 | 0.00 | 0.00 | 0.00 | 43 | |
| 20260903123104 | 73 | 250 | 15.0 | 0.0 | 0.00 | 0.00 | 0.00 | 46 | 1019.0 |
| 20260903121856 | 73 | 230 | 14.0 | 0.0 | 0.00 | 0.00 | 0.00 | 43 | |
| 20260903113102 | 72 | 240 | 9.0 | 0.0 | 0.00 | 0.00 | 0.00 | 49 | 1019.0 |
| 20260903111851 | 72 | 230 | 12.0 | 0.0 | 0.00 | 0.00 | 0.00 | 46 |